Location: Newark
(52.3500°N, 175.9667°E)
Time: 22:29:52
(UTC+00:00)

Altair - Pass Details

Date: 28 April 2021
Orbit: 1501 x 1683 km, 47.2° (Epoch: 05 May)

Event Time Altitude Azimuth Distance (km) Brightness Sun altitude
Rises 15:26:31 0° 217° (SW) 4,916 - -11.4°
Reaches altitude 10° 15:29:57 10° 210° (SSW) 3,918 - -11.0°
Exits shadow 15:30:07 11° 209° (SSW) 3,872 9.0 -11.0°
Maximum altitude 15:38:56 39° 146° (SSE) 2,286 8.4 -10.0°
Drops below altitude 10° 15:47:40 10° 83° (E) 3,816 10.6 -8.9°
Sets 15:50:57 0° 76° (ENE) 4,776 11.5 -8.5°
